Temperature
22 22 21 21 21 20 19 19 19 18 18 17 17 17 17 17 17 17 17 17 17 16 17 17 17 17 17 17 17 17 17 17 17 17 17 17 17 17 17 17 17 17 17
22 22 22 21 21 21 20 19 19 19 18 17 17 17 17 17 17 17 17 16 16 16 16 16 17 17 17 17 17 17 17 17 17 17 17 17 17 17 17 17 17 17 17
22 22 22 22 21 21 20 20 19 19 18 17 17 17 17 16 16 17 17 16 16 16 17 16 16 17 16 17 17 17 17 17 17 17 17 17 17 17 17 17 17 17 17
21 21 22 22 21 21 21 20 20 19 19 18 17 17 17 16 16 16 17 17 17 16 16 16 16 16 16 17 17 16 16 16 16 17 17 17 17 17 17 17 17 17 18
21 21 21 21 21 21 21 20 20 19 19 18 17 17 17 16 16 16 17 17 17 17 16 16 16 16 16 17 17 16 16 16 17 17 17 17 17 16 16 16 16 17 17
21 21 20 20 20 20 20 20 20 19 19 18 18 17 17 16 16 16 16 16 16 17 17 16 16 16 16 16 16 16 16 16 17 17 17 17 16 16 16 16 16 16 16
21 21 20 20 20 19 19 20 20 19 19 18 17 17 17 16 16 16 16 16 16 16 16 16 16 16 16 17 17 16 16 16 17 17 17 17 16 16 16 16 16 16 16
21 21 20 19 19 18 18 18 19 19 19 18 17 17 16 16 16 16 16 16 16 16 16 16 16 16 16 16 16 16 16 16 17 17 17 16 16 16 16 16 15 16 16
21 21 20 19 19 18 18 17 17 18 18 18 17 17 17 16 16 15 15 16 16 16 16 16 16 16 16 16 16 16 16 16 16 16 16 16 16 16 16 16 16 15 15
20 20 20 19 18 18 17 17 17 17 17 17 17 17 16 16 16 16 16 16 15 15 15 16 16 15 15 15 15 15 15 16 16 16 16 16 16 16 15 15 15 15 15
19 19 19 18 18 18 17 17 16 16 16 16 17 17 17 16 17 17 16 16 15 15 15 15 15 15 15 15 15 15 15 15 15 15 16 16 15 15 15 15 15 15 15
18 18 18 18 17 17 17 16 16 15 15 15 15 16 16 16 16 16 17 16 16 15 15 15 15 15 15 15 15 15 15 15 15 15 15 15 15 15 15 15 15 14 15
18 17 18 18 17 17 17 16 15 15 15 15 14 14 14 15 16 16 17 16 16 16 15 15 15 15 15 15 15 14 15 15 15 15 15 15 15 14 14 14 14 14 14
17 17 17 17 17 16 16 16 15 14 14 14 14 13 14 14 14 15 16 16 16 15 14 14 14 14 14 14 14 14 14 14 14 15 15 14 14 14 14 14 14 14 14
16 16 16 16 16 15 15 14 14 14 13 13 13 12 12 12 13 13 13 14 14 14 13 13 13 14 14 14 14 14 14 14 14 14 14 14 14 14 14 14 14 14 14
15 16 16 16 16 15 15 14 14 13 13 12 12 12 12 12 12 12 12 12 12 13 13 13 13 13 13 13 13 13 13 13 13 13 14 14 14 14 13 13 13 14 14
15 15 15 15 15 15 15 15 14 14 13 12 12 11 11 11 11 11 11 12 12 12 12 13 13 13 13 13 13 13 13 13 13 13 13 13 13 13 13 13 13 13 14
15 15 15 15 15 15 15 14 14 13 13 12 11 11 11 11 11 11 11 11 11 12 12 12 13 13 12 12 12 13 13 13 13 12 12 12 13 13 13 13 13 13 13
15 15 15 14 14 14 14 14 13 12 12 11 11 11 11 11 11 11 11 11 11 11 12 12 12 12 12 12 12 12 12 13 13 13 12 12 12 12 12 13 13 12 12
14 14 14 14 14 14 13 13 12 11 11 11 11 11 11 10 10 11 11 11 11 11 11 11 12 12 12 12 12 12 12 12 12 13 13 13 12 12 12 12 12 12 12
14 14 14 14 13 13 12 12 11 11 11 10 10 10 10 10 11 11 11 10 10 10 11 11 11 11 11 12 12 12 12 12 12 12 12 12 12 12 12 12 12 12 12
13 13 13 13 13 12 12 11 10 10 10 10 10 10 10 10 10 10 10 10 10 10 10 10 11 11 11 11 11 11 11 12 11 12 12 12 12 12 12 12 12 12 12
13 13 13 13 12 12 11 10 10 10 10 10 10 10 10 10 9 9 9 9 9 9 9 9 10 10 10 10 10 10 9 9 9 10 10 11 11 11 11 12 12 12 12
13 13 13 12 12 11 10 10 10 9 9 9 9 9 9 9 9 9 9 9 9 9 9 9 9 9 9 9 9 9 8 8 8 8 8 9 9 10 10 11 11 11 11
12 12 12 12 11 11 10 10 9 9 9 9 9 9 9 8 8 8 8 8 8 8 8 8 8 8 8 8 8 8 8 8 7 7 7 8 9 9 9 10 10 10 11
12 12 12 12 11 10 10 9 9 9 9 8 8 8 8 8 8 8 8 8 8 8 8 8 8 8 8 8 8 8 7 7 7 7 7 7 7 8 9 10 10 10 10
Wind_Speed
5 6 16 15 14 13 12 11 10 8 7 6 6 6 6 7 7 7 7 6 6 5 5 5 6 7 7 6 6 7 7 7 6 5 4 4 5 5 4 2 2 3 5
5 10 17 16 15 15 14 13 11 9 8 8 7 7 7 8 8 8 8 7 6 6 6 6 7 7 6 6 7 7 7 6 6 5 4 3 3 3 3 2 1 1 2
5 10 16 17 16 16 15 14 12 11 10 9 8 7 7 8 8 7 7 7 6 7 7 7 7 7 6 6 6 6 7 6 4 3 2 1 0 1 2 2 1 1 2
6 9 12 16 16 15 15 14 13 12 11 10 8 7 7 8 7 7 7 7 7 8 8 8 8 8 8 7 6 6 8 6 3 3 2 2 2 0 1 1 1 1 3
6 8 11 15 15 15 14 14 13 12 10 10 9 7 6 5 6 7 7 7 8 8 8 8 8 8 8 7 6 5 6 6 5 4 2 0 1 1 1 1 2 2 3
6 8 10 14 14 14 14 14 13 12 10 10 9 8 8 7 7 6 6 7 8 8 9 9 9 9 8 7 6 5 5 6 5 3 1 0 1 2 2 0 0 0 1
5 5 8 13 14 14 14 14 14 12 11 10 10 9 9 9 7 6 5 6 7 8 9 10 11 11 10 9 8 7 6 6 5 3 1 1 2 4 3 3 3 3 3
4 5 5 11 13 13 14 14 14 13 13 12 11 10 10 9 9 7 7 6 7 8 9 10 12 12 12 11 10 8 7 6 6 4 2 4 5 6 6 5 5 5 4
5 4 4 6 9 11 13 14 14 14 14 13 11 10 10 9 9 9 8 7 8 9 10 10 12 13 12 13 12 10 8 6 5 4 3 5 6 7 8 8 7 6 4
7 4 1 4 6 7 9 13 14 13 13 12 11 10 8 7 7 7 6 6 8 9 10 11 12 13 12 14 14 12 8 5 3 3 3 5 6 7 8 8 7 7 5
6 5 5 3 4 6 7 9 11 12 12 12 10 9 7 4 4 5 7 8 10 11 10 11 13 14 13 14 15 12 8 4 4 3 4 6 7 8 8 6 7 8 7
6 6 6 5 4 4 5 6 6 7 7 8 7 7 6 6 7 7 8 9 11 11 12 12 12 12 12 9 11 11 7 5 4 4 6 7 8 9 9 8 8 10 10
3 5 6 6 4 3 3 3 3 4 4 5 7 7 5 5 5 6 5 7 8 9 8 9 8 6 7 7 4 5 6 5 4 4 6 8 10 11 11 9 8 11 11
3 5 6 7 6 3 1 1 1 1 2 3 5 5 4 2 4 3 3 5 5 5 5 5 3 5 6 7 6 5 5 4 4 5 6 9 11 12 13 11 9 10 12
3 4 5 6 7 6 5 4 2 1 1 2 3 4 5 4 4 4 3 3 5 5 4 5 5 5 6 5 6 6 6 6 6 6 7 9 10 11 13 13 12 11 12
4 4 4 6 6 6 6 5 4 3 2 2 3 4 5 4 4 3 3 4 4 4 4 4 4 4 3 3 5 5 5 5 6 7 8 9 11 12 13 14 13 13 14
5 4 4 5 6 6 5 4 3 3 3 2 2 3 3 4 4 4 3 3 3 3 3 2 3 2 2 3 4 4 4 4 5 6 8 9 10 13 15 16 16 15 15
6 5 5 4 6 6 4 3 2 2 2 2 2 3 2 1 2 2 2 3 2 1 1 2 2 3 3 3 4 4 4 4 5 6 7 8 10 11 14 17 18 17 16
6 6 5 5 5 4 4 4 3 2 2 2 2 2 3 4 5 2 3 2 1 1 2 3 3 3 3 3 4 4 4 4 5 6 6 7 10 12 12 14 16 17 17
5 6 6 5 5 4 4 4 4 4 4 3 3 3 3 4 5 4 4 5 3 2 3 3 4 3 2 2 2 3 4 5 5 6 8 6 7 10 13 13 13 14 16
5 6 5 5 4 4 4 3 3 3 3 3 4 5 6 5 4 3 3 4 4 4 4 4 3 3 2 1 1 1 2 4 5 5 5 5 6 7 9 10 11 12 13
6 6 6 6 5 3 3 2 2 0 1 2 2 4 6 6 6 4 4 3 3 3 5 4 3 2 2 2 2 2 2 4 2 4 4 5 6 5 6 7 10 11 12
7 8 7 7 6 4 3 2 2 2 2 3 3 3 4 4 4 4 4 3 2 3 3 3 3 3 2 3 3 3 2 1 3 3 3 3 4 5 6 6 7 10 13
8 8 8 8 6 5 4 3 3 3 2 2 2 2 3 2 2 3 3 3 2 2 3 2 2 2 3 2 2 1 2 3 1 4 4 3 4 6 7 6 7 7 12
8 8 8 7 6 5 4 4 4 3 2 2 2 3 3 2 1 1 2 2 2 1 2 2 3 3 3 3 3 2 1 1 3 3 3 5 5 5 6 7 7 6 9
7 6 6 7 6 5 4 4 3 3 3 3 2 2 2 2 2 3 3 3 2 1 2 3 4 4 4 4 4 4 4 3 4 4 4 4 5 5 6 6 6 7 6
Wind_Direction
211 190 184 184 185 186 190 196 201 199 201 207 212 206 210 213 217 217 217 215 191 179 191 188 181 180 174 167 155 146 142 136 129 111 86 78 90 102 108 126 181 198 200
179 177 183 183 184 187 190 195 198 204 209 207 213 218 216 220 223 224 225 224 211 200 198 186 178 176 176 175 162 152 154 149 142 127 99 73 65 74 73 68 93 154 192
148 173 184 184 187 189 191 195 198 209 212 207 205 221 222 229 226 228 233 236 229 220 210 194 182 177 176 174 174 181 175 159 145 112 93 123 315 71 56 40 64 86 83
159 171 182 187 191 193 195 198 203 207 210 210 205 219 226 229 221 225 236 240 237 233 222 210 196 184 181 177 177 187 183 166 138 73 33 244 265 162 78 48 27 72 76
162 177 187 191 196 199 201 203 206 206 214 213 205 217 231 238 228 227 234 241 239 237 231 220 207 194 185 181 181 183 174 152 120 91 63 105 242 242 204 84 39 59 70
185 188 197 197 201 205 208 209 208 207 219 218 211 220 232 243 245 247 249 250 244 241 235 225 211 197 190 185 187 180 157 134 119 107 77 30 282 274 229 179 330 358 41
218 205 211 209 207 208 212 214 214 213 223 229 225 226 235 241 243 252 274 272 253 248 243 229 212 199 194 192 193 187 167 144 141 136 143 254 264 270 251 251 250 266 306
209 196 215 222 215 214 217 219 220 218 223 231 235 232 238 244 247 252 266 281 269 254 247 236 220 209 200 200 201 196 180 165 157 161 200 231 242 255 257 261 250 250 275
81 148 186 213 217 218 219 223 226 225 223 229 237 240 241 249 257 259 265 276 287 262 250 243 235 228 214 207 205 201 190 182 170 183 198 205 222 241 262 272 249 240 262
50 52 160 198 202 210 219 222 225 228 227 227 236 250 257 258 279 291 297 296 302 288 256 246 242 241 230 218 209 200 186 182 192 217 233 219 221 234 256 272 237 223 233
25 22 9 315 235 211 210 219 224 226 228 227 230 238 251 260 271 282 286 291 294 298 289 264 250 246 243 229 217 195 174 177 198 230 245 242 235 236 253 264 220 216 222
11 359 3 347 302 239 217 206 212 216 222 222 216 222 229 232 241 248 262 276 283 290 295 288 268 253 247 232 224 191 172 180 196 229 246 253 250 249 259 263 237 230 232
5 6 356 353 340 257 217 180 193 205 209 212 214 219 225 234 245 254 261 272 274 276 277 276 266 231 211 205 203 184 173 180 198 229 250 258 259 256 259 264 263 251 243
56 23 10 9 21 35 113 139 170 194 203 211 220 223 219 226 242 246 246 256 256 251 249 246 221 205 199 193 187 195 191 191 209 228 250 261 263 253 253 257 268 269 252
99 43 20 27 36 43 51 42 39 332 261 251 247 239 222 221 239 247 258 257 251 241 229 234 215 205 199 193 195 198 204 207 215 220 236 253 261 255 254 261 267 274 268
120 72 35 46 46 54 53 45 32 17 351 309 271 254 231 217 219 225 248 262 261 246 232 224 214 209 203 200 218 225 227 223 224 221 225 239 247 247 249 257 265 268 274
141 92 56 63 51 54 52 47 47 30 29 15 324 299 243 219 224 226 234 253 261 267 252 225 198 182 206 217 236 237 246 253 263 251 236 235 243 244 242 247 257 264 269
136 109 72 68 60 51 40 27 28 30 40 35 12 5 355 284 236 228 250 255 252 244 165 173 177 192 210 218 230 229 222 226 247 259 257 243 237 240 242 243 249 259 268
138 125 101 75 62 48 37 30 25 24 27 24 26 18 5 9 17 13 345 326 215 137 121 124 128 151 196 226 237 234 221 220 236 247 249 242 234 233 237 244 248 255 261
141 124 108 83 61 52 41 35 32 35 27 26 20 15 25 35 35 34 25 13 20 66 83 90 104 126 173 199 223 239 236 231 228 233 241 241 233 231 232 236 241 247 252
143 116 102 87 65 67 59 45 30 13 359 17 24 31 33 34 37 46 41 33 38 54 61 76 103 103 106 147 137 298 292 259 247 249 245 249 248 240 234 233 236 239 244
155 135 125 119 113 112 124 136 135 61 328 333 350 32 34 30 28 34 41 48 65 76 63 57 64 87 56 46 111 97 10 354 343 268 255 253 263 268 256 244 240 238 241
179 169 158 153 143 134 131 121 96 73 36 8 356 3 9 19 26 30 33 53 89 111 109 95 89 99 70 18 42 92 100 316 319 328 351 322 296 276 262 251 240 235 234
198 184 167 163 160 155 138 127 131 139 172 229 276 307 330 17 33 30 23 33 74 113 126 135 129 132 121 74 29 76 154 171 203 322 324 333 322 294 280 267 252 239 230
204 191 179 171 171 161 151 147 145 165 207 243 273 299 316 339 25 56 32 22 40 121 168 180 170 175 173 167 173 172 153 175 188 197 281 311 316 294 280 267 259 249 237
217 209 192 185 186 166 155 160 174 188 214 241 259 276 303 334 357 21 11 359 333 273 242 232 220 206 201 201 198 184 176 181 199 196 224 261 284 293 295 276 260 253 246
Height
1495 1494 1493 1493 1493 1494 1495 1496 1497 1499 1500 1501 1503 1504 1505 1507 1509 1510 1511 1512 1513 1514 1515 1515 1515 1516 1517 1517 1518 1518 1519 1519 1520 1520 1521 1521 1522 1521 1521 1522 1522 1522 1523
1495 1494 1493 1493 1493 1494 1495 1496 1497 1498 1499 1501 1502 1503 1505 1506 1507 1509 1510 1511 1512 1512 1513 1514 1514 1515 1516 1517 1517 1518 1519 1519 1520 1520 1520 1521 1522 1522 1522 1522 1522 1522 1522
1495 1494 1494 1493 1493 1494 1494 1495 1496 1498 1499 1500 1501 1502 1504 1505 1506 1507 1508 1509 1510 1511 1512 1512 1513 1514 1515 1516 1517 1517 1518 1519 1520 1520 1520 1520 1521 1522 1522 1522 1522 1523 1522
1495 1495 1494 1494 1494 1494 1494 1495 1496 1497 1498 1499 1500 1501 1503 1504 1505 1506 1507 1508 1509 1510 1511 1511 1512 1513 1514 1515 1516 1516 1517 1518 1519 1519 1520 1520 1521 1521 1521 1521 1522 1522 1522
1495 1495 1495 1495 1494 1494 1494 1494 1495 1496 1497 1498 1499 1500 1502 1503 1504 1505 1506 1507 1508 1509 1510 1510 1511 1512 1513 1514 1514 1515 1516 1517 1518 1518 1519 1520 1520 1520 1520 1521 1521 1521 1521
1495 1495 1495 1495 1494 1494 1494 1494 1494 1495 1496 1497 1498 1499 1500 1501 1502 1504 1505 1505 1507 1507 1508 1508 1509 1511 1511 1512 1513 1514 1515 1516 1517 1517 1518 1519 1519 1519 1520 1520 1520 1521 1521
1494 1494 1494 1494 1494 1494 1494 1494 1494 1494 1495 1495 1496 1497 1498 1499 1501 1502 1503 1504 1505 1506 1506 1507 1507 1508 1510 1511 1512 1513 1514 1515 1515 1516 1517 1518 1518 1519 1519 1519 1520 1520 1520
1492 1492 1491 1491 1491 1492 1492 1492 1492 1493 1493 1494 1494 1495 1496 1497 1498 1499 1501 1502 1503 1504 1504 1505 1506 1507 1508 1509 1510 1512 1512 1513 1514 1515 1516 1516 1517 1517 1518 1518 1518 1519 1520
1490 1490 1489 1489 1489 1489 1489 1489 1490 1490 1491 1492 1492 1493 1494 1495 1496 1497 1498 1499 1500 1501 1502 1503 1504 1505 1506 1507 1508 1510 1510 1511 1512 1513 1513 1514 1515 1516 1516 1516 1516 1517 1518
1487 1486 1486 1486 1486 1486 1487 1487 1487 1487 1488 1489 1490 1491 1491 1492 1493 1494 1494 1495 1497 1498 1499 1500 1501 1502 1503 1505 1507 1508 1509 1509 1510 1511 1512 1512 1513 1514 1514 1515 1515 1516 1516
1484 1483 1483 1483 1483 1484 1484 1485 1485 1485 1486 1486 1487 1488 1488 1489 1490 1490 1491 1492 1493 1494 1496 1497 1498 1499 1501 1502 1504 1505 1506 1507 1508 1509 1510 1511 1511 1512 1512 1513 1513 1514 1515
1482 1481 1481 1481 1481 1481 1482 1483 1483 1483 1484 1484 1484 1485 1485 1486 1486 1487 1488 1488 1489 1490 1492 1493 1494 1495 1497 1498 1500 1502 1503 1504 1506 1507 1508 1508 1509 1510 1510 1510 1510 1511 1512
1480 1479 1479 1478 1478 1478 1479 1479 1480 1481 1481 1481 1482 1482 1482 1483 1483 1483 1484 1485 1485 1486 1488 1490 1491 1492 1493 1495 1497 1498 1500 1501 1502 1504 1505 1506 1507 1508 1508 1508 1508 1509 1510
1478 1477 1477 1476 1475 1475 1475 1476 1477 1478 1478 1479 1479 1479 1479 1479 1479 1479 1480 1481 1481 1482 1484 1486 1487 1488 1490 1491 1493 1495 1496 1498 1499 1501 1502 1503 1503 1504 1505 1506 1506 1506 1507
1477 1477 1476 1475 1474 1473 1473 1474 1475 1476 1476 1477 1477 1477 1476 1476 1476 1476 1477 1477 1478 1479 1481 1483 1484 1485 1486 1488 1489 1491 1493 1494 1496 1497 1499 1500 1501 1501 1502 1503 1504 1504 1505
1477 1476 1475 1475 1474 1473 1473 1473 1473 1473 1473 1473 1474 1475 1475 1474 1474 1474 1474 1474 1475 1476 1477 1479 1480 1481 1483 1484 1486 1487 1489 1491 1492 1494 1495 1496 1498 1498 1499 1500 1500 1501 1501
1475 1475 1474 1474 1474 1473 1473 1473 1472 1471 1470 1470 1470 1471 1472 1472 1472 1472 1472 1472 1472 1473 1474 1475 1476 1477 1478 1480 1481 1483 1484 1486 1488 1490 1491 1492 1494 1495 1495 1496 1497 1497 1498
1473 1473 1473 1473 1472 1472 1472 1472 1471 1470 1469 1468 1467 1468 1469 1469 1469 1469 1469 1468 1468 1469 1470 1471 1472 1473 1474 1475 1477 1478 1479 1481 1482 1484 1486 1487 1488 1490 1491 1492 1493 1493 1494
1471 1471 1471 1471 1470 1470 1470 1470 1469 1469 1468 1467 1466 1466 1466 1467 1467 1466 1466 1465 1464 1465 1465 1466 1468 1469 1470 1471 1472 1473 1474 1476 1477 1479 1480 1481 1482 1484 1485 1487 1488 1489 1490
1468 1468 1469 1469 1468 1468 1467 1467 1467 1467 1467 1466 1465 1465 1465 1464 1464 1464 1464 1463 1462 1462 1462 1462 1463 1464 1465 1465 1466 1468 1469 1470 1472 1473 1474 1475 1476 1478 1479 1481 1482 1483 1484
1464 1465 1466 1466 1466 1466 1465 1465 1465 1465 1465 1464 1464 1464 1464 1464 1463 1462 1462 1461 1460 1460 1459 1459 1460 1460 1461 1461 1462 1463 1464 1465 1466 1467 1469 1470 1471 1472 1473 1474 1476 1477 1478
1461 1462 1462 1463 1463 1463 1462 1462 1462 1463 1464 1464 1463 1462 1462 1462 1462 1461 1461 1460 1459 1458 1457 1457 1458 1457 1457 1457 1457 1457 1458 1460 1460 1462 1463 1464 1465 1465 1466 1467 1469 1469 1471
1458 1459 1459 1459 1459 1460 1460 1460 1460 1460 1461 1462 1462 1461 1459 1459 1459 1459 1460 1460 1458 1456 1455 1455 1455 1455 1455 1454 1454 1454 1454 1454 1455 1457 1458 1459 1459 1460 1460 1461 1461 1462 1464
1455 1456 1456 1456 1456 1456 1457 1457 1457 1458 1458 1458 1458 1458 1457 1456 1456 1456 1457 1457 1456 1455 1454 1454 1454 1453 1453 1453 1453 1453 1454 1453 1454 1453 1454 1455 1455 1454 1454 1454 1454 1455 1456
1453 1453 1453 1454 1454 1454 1454 1454 1454 1454 1455 1455 1455 1455 1454 1453 1453 1454 1454 1454 1454 1453 1453 1452 1452 1452 1452 1452 1452 1452 1452 1451 1451 1451 1450 1450 1450 1451 1450 1449 1448 1448 1448
1451 1451 1451 1451 1451 1451 1452 1452 1452 1452 1452 1452 1451 1452 1451 1450 1450 1450 1450 1451 1451 1451 1451 1450 1450 1450 1449 1449 1449 1449 1449 1449 1449 1448 1448 1447 1446 1446 1445 1445 1444 1443 1443